TimeHST,TemperatureF,Dew PointF,Humidity,Sea Level PressureIn,VisibilityMPH,Wind Direction,Wind SpeedMPH,Gust SpeedMPH,PrecipitationIn,Events,Conditions,WindDirDegrees,DateUTC
12:53 AM,73.0,64.9,76,30.02,10.0,NW,3.5,-,N/A,,Partly Cloudy,310,2013-08-20 10:53:00
1:53 AM,71.1,64.9,81,30.00,10.0,WNW,5.8,-,N/A,,Partly Cloudy,290,2013-08-20 11:53:00
2:53 AM,71.1,64.9,81,29.99,10.0,West,6.9,-,N/A,,Partly Cloudy,280,2013-08-20 12:53:00
3:53 AM,71.1,64.9,81,29.98,10.0,WNW,5.8,-,N/A,,Mostly Cloudy,290,2013-08-20 13:53:00
4:53 AM,72.0,64.9,78,29.97,10.0,WNW,5.8,-,N/A,,Mostly Cloudy,290,2013-08-20 14:53:00
5:00 AM,71.6,64.4,78,29.98,10.0,WNW,4.6,-,N/A,,Mostly Cloudy,290,2013-08-20 15:00:00
5:53 AM,72.0,66.0,81,29.97,10.0,West,3.5,-,N/A,,Overcast,270,2013-08-20 15:53:00
6:29 AM,71.6,66.2,83,29.98,10.0,Calm,Calm,-,N/A,,Mostly Cloudy,0,2013-08-20 16:29:00
6:36 AM,71.6,66.2,83,29.98,10.0,Calm,Calm,-,N/A,,Mostly Cloudy,0,2013-08-20 16:36:00
6:53 AM,73.0,66.9,81,29.98,10.0,West,5.8,-,N/A,,Mostly Cloudy,270,2013-08-20 16:53:00
7:00 AM,73.4,66.2,78,29.99,10.0,West,5.8,-,N/A,,Mostly Cloudy,280,2013-08-20 17:00:00
7:17 AM,75.2,68.0,78,29.99,10.0,Calm,Calm,-,N/A,,Scattered Clouds,0,2013-08-20 17:17:00
7:53 AM,79.0,69.1,72,29.99,10.0,North,5.8,-,N/A,,Mostly Cloudy,10,2013-08-20 17:53:00
8:23 AM,78.8,68.0,69,30.00,10.0,NE,6.9,-,N/A,,Overcast,40,2013-08-20 18:23:00
8:53 AM,81.0,69.1,67,30.00,10.0,East,9.2,-,0.00,,Overcast,80,2013-08-20 18:53:00
9:53 AM,81.0,69.1,67,30.01,10.0,ENE,6.9,-,N/A,,Mostly Cloudy,60,2013-08-20 19:53:00
10:03 AM,78.8,71.6,78,30.02,10.0,NNE,9.2,-,0.00,Rain,Light Rain,30,2013-08-20 20:03:00
10:22 AM,82.4,69.8,66,30.02,10.0,East,9.2,-,0.00,,Scattered Clouds,80,2013-08-20 20:22:00
10:53 AM,82.0,70.0,67,30.01,10.0,East,10.4,-,0.00,,Partly Cloudy,80,2013-08-20 20:53:00
11:53 AM,82.9,70.0,65,30.00,10.0,ENE,10.4,-,N/A,,Scattered Clouds,70,2013-08-20 21:53:00
12:53 PM,84.0,71.1,65,29.99,10.0,East,11.5,-,N/A,,Partly Cloudy,80,2013-08-20 22:53:00
1:53 PM,84.0,71.1,65,29.97,10.0,East,10.4,-,N/A,,Partly Cloudy,80,2013-08-20 23:53:00
2:53 PM,84.0,72.0,67,29.95,10.0,East,10.4,-,N/A,,Scattered Clouds,80,2013-08-21 00:53:00
3:53 PM,82.9,70.0,65,29.94,10.0,East,11.5,-,N/A,,Partly Cloudy,90,2013-08-21 01:53:00
4:53 PM,82.0,70.0,67,29.94,10.0,East,11.5,-,N/A,,Partly Cloudy,100,2013-08-21 02:53:00
5:53 PM,79.0,70.0,74,29.94,10.0,East,9.2,-,N/A,,Clear,90,2013-08-21 03:53:00
6:53 PM,78.1,70.0,76,29.94,10.0,East,9.2,-,N/A,,Clear,90,2013-08-21 04:53:00
7:53 PM,78.1,71.1,79,29.96,10.0,East,6.9,-,N/A,,Partly Cloudy,90,2013-08-21 05:53:00
8:53 PM,78.1,71.1,79,29.98,10.0,East,5.8,-,N/A,,Scattered Clouds,90,2013-08-21 06:53:00
9:53 PM,78.1,71.1,79,30.00,10.0,East,5.8,-,N/A,,Mostly Cloudy,100,2013-08-21 07:53:00
10:53 PM,75.9,70.0,82,30.00,10.0,Calm,Calm,-,N/A,,Scattered Clouds,0,2013-08-21 08:53:00
11:03 PM,75.2,71.6,89,30.01,10.0,Calm,Calm,-,N/A,,Mostly Cloudy,0,2013-08-21 09:03:00
11:53 PM,75.0,71.1,87,29.99,10.0,Calm,Calm,-,N/A,,Mostly Cloudy,0,2013-08-21 09:53:00